User: anonymous
Location: Radomski Observatory
(40.2854°N, 79.5145°W)
Time: 03:52:41
(UTC-04:00)
Language:

Uosat F - Orbit

View from above orbital plane
View from above orbital plane
View from above satellite
View from above satellite

Ground track
Ground track

The orbit data is extracted from the following two-line orbital elements,

1 21575U 91050B   14203.83677600  .00000032  00000-0  24569-4 0   673
2 21575 098.7013 180.6396 0006953 207.3522 215.3195 14.40399893208610
Epoch (UTC): 22 July 2014 20:04:57
Eccentricity: 0.0006953
inclination: 98.7013°
perigee height: 752 km
apogee height: 762 km
right ascension of ascending node: 180.6396°
argument of perigee: 207.3522°
revolutions per day: 14.40399893
mean anomaly at epoch: 215.3195°
orbit number at epoch: 20861

The dashed part of the orbit path shows where the satellite is in the earth's shadow,  

DLR